| time (UTC) | temp F | wind direction | speed knots | gust knots | rain 1hr in | rain 24hr in | rain mn in | humidity % | barometer mb |
| 20260903071103 | 66 | 134 | 2.6 | 4.3 | 0.00 | 0.00 | 0.00 | 77 | 1022.8 |
| 20260903064102 | 61 | 139 | 1.7 | 4.3 | 0.00 | 0.00 | 0.00 | 94 | 1023.3 |
| 20260903061103 | 58 | 112 | 0.9 | 2.6 | 0.00 | 0.00 | 0.00 | 100 | 1023.6 |
| 20260903054102 | 58 | 167 | 1.7 | 3.5 | 0.00 | 0.00 | 0.00 | 100 | 1023.6 |
| 20260903051103 | 57 | 165 | 1.7 | 3.5 | 0.00 | 0.00 | 0.00 | 100 | 1023.6 |
| 20260903044102 | 58 | 141 | 0.9 | 1.7 | 0.00 | 0.00 | 0.00 | 100 | 1022.6 |
| 20260903041102 | 58 | 117 | 0.9 | 2.6 | 0.00 | 0.00 | 0.00 | 100 | 1022.5 |
| 20260903031103 | 59 | 148 | 1.7 | 3.5 | 0.00 | 0.00 | 0.00 | 100 | 1022.4 |
| 20260903021102 | 61 | 74 | 1.7 | 3.5 | 0.00 | 0.00 | 0.00 | 95 | 1022.3 |
| 20260903014102 | 62 | 21 | 1.7 | 3.5 | 0.00 | 0.00 | 0.00 | 94 | 1022.2 |
| 20260903011103 | 62 | 316 | 2.6 | 5.2 | 0.00 | 0.00 | 0.00 | 94 | 1022.2 |
| 20260903004103 | 61 | 114 | 1.7 | 3.5 | 0.00 | 0.00 | 0.00 | 96 | 1022.3 |
| 20260903001502 | 60 | 152 | 3.5 | 5.2 | 0.00 | 0.00 | 0.00 | 99 | 1022.4 |
| 20260902234102 | 60 | 152 | 1.7 | 4.3 | 0.00 | 0.00 | 0.00 | 99 | 1022.4 |
| 20260902224103 | 61 | 145 | 1.7 | 3.5 | 0.00 | 0.00 | 0.00 | 96 | 1022.3 |
| 20260902221103 | 61 | 163 | 2.6 | 4.3 | 0.00 | 0.00 | 0.00 | 97 | 1022.2 |
| 20260902214103 | 61 | 161 | 2.6 | 5.2 | 0.00 | 0.00 | 0.00 | 98 | 1022.2 |
| 20260902211103 | 62 | 162 | 1.7 | 5.2 | 0.00 | 0.00 | 0.00 | 95 | 1021.1 |
| 20260902204104 | 64 | 38 | 1.7 | 3.5 | 0.00 | 0.00 | 0.00 | 90 | 1021.0 |
| 20260902201103 | 64 | 145 | 1.7 | 5.2 | 0.00 | 0.00 | 0.00 | 90 | 1020.9 |
| 20260902194103 | 65 | 121 | 1.7 | 3.5 | 0.00 | 0.00 | 0.00 | 86 | 1020.8 |
| 20260902191103 | 66 | 353 | 0.9 | 2.6 | 0.00 | 0.00 | 0.00 | 84 | 1020.7 |
| 20260902184103 | 67 | 217 | 0.9 | 2.6 | 0.00 | 0.00 | 0.00 | 84 | 1020.7 |
| 20260902181103 | 69 | 359 | 0.9 | 2.6 | 0.00 | 0.00 | 0.00 | 75 | 1019.4 |
| 20260902174103 | 71 | 16 | 2.6 | 5.2 | 0.00 | 0.00 | 0.00 | 66 | 1019.2 |
| 20260902171103 | 74 | 345 | 2.6 | 4.3 | 0.00 | 0.00 | 0.00 | 58 | 1018.9 |
| 20260902164103 | 76 | 346 | 3.5 | 7.0 | 0.00 | 0.00 | 0.00 | 50 | 1018.7 |
| 20260902161103 | 77 | 333 | 2.6 | 7.8 | 0.00 | 0.00 | 0.00 | 48 | 1018.6 |
| 20260902154103 | 78 | 348 | 3.5 | 8.7 | 0.00 | 0.00 | 0.00 | 46 | 1018.6 |
| 20260902151103 | 78 | 319 | 4.3 | 8.7 | 0.00 | 0.00 | 0.00 | 46 | 1018.6 |
| 20260902144103 | 78 | 323 | 3.5 | 8.7 | 0.00 | 0.00 | 0.00 | 46 | 1019.6 |
| 20260902141103 | 78 | 317 | 2.6 | 8.7 | 0.00 | 0.00 | 0.00 | 45 | 1019.6 |
| 20260902134103 | 77 | 347 | 4.3 | 10.4 | 0.00 | 0.00 | 0.00 | 48 | 1019.7 |
| 20260902131103 | 76 | 325 | 4.3 | 9.6 | 0.00 | 0.00 | 0.00 | 48 | 1019.7 |
| 20260902124102 | 77 | 338 | 4.3 | 10.4 | 0.00 | 0.00 | 0.00 | 47 | 1019.7 |
| 20260902121103 | 76 | 315 | 3.5 | 7.0 | 0.00 | 0.00 | 0.00 | 48 | 1019.7 |
| 20260902114103 | 76 | 295 | 2.6 | 7.0 | 0.00 | 0.00 | 0.00 | 52 | 1019.8 |
| 20260902111103 | 75 | 2 | 3.5 | 7.0 | 0.00 | 0.00 | 0.00 | 51 | 1020.9 |
| 20260902104103 | 74 | 26 | 1.7 | 5.2 | 0.00 | 0.00 | 0.00 | 57 | 1021.0 |
| 20260902101103 | 72 | 332 | 1.7 | 6.1 | 0.00 | 0.00 | 0.00 | 62 | 1021.2 |
| 20260902094103 | 72 | 259 | 1.7 | 4.3 | 0.00 | 0.00 | 0.00 | 62 | 1021.2 |
| 20260902091102 | 70 | 255 | 1.7 | 4.3 | 0.00 | 0.00 | 0.00 | 65 | 1021.4 |
| 20260902084102 | 69 | 343 | 1.7 | 4.3 | 0.00 | 0.00 | 0.00 | 68 | 1021.5 |
| 20260902081102 | 68 | 133 | 1.7 | 6.1 | 0.00 | 0.00 | 0.00 | 69 | 1021.6 |
| 20260902074103 | 67 | 139 | 3.5 | 6.1 | 0.00 | 0.00 | 0.00 | 73 | 1021.7 |